World > North America > United States > Pennsylvania > Barneytown  

Barneytown, PA Hourly Weather Updates

Feedback E-mail the Weather

Quick Clicks

Barneytown, PA Weather Maps

°F °C°F °C
Barneytown Weather Map
UTC Time: 7/20/2024, 06:34
Your Time:

Barneytown, PA Regional Weather

Expires:202407200700;;971086
ASUS41 KCTP 200610
RWRCTP

REGIONAL WEATHER ROUNDUP
NATIONAL WEATHER SERVICE STATE COLLEGE PA
200 AM EDT SAT JUL 20 2024

Note: "fair" indicates few or no clouds below 12,000 feet with no 
significant weather and/or obstructions to visibility.

* = STATION THAT DOES NOT REPORT PRECIPITATION /E.G. RAIN...SNOW...ETC/
    THUNDER OR FOG.


PAZ004>006-010>012-017>019-024>028-033>037-041-042-045-046-049>053-200700-
CENTRAL PENNSYLVANIA
  
CITY           SKY/WX    TMP DP  RH WIND       PRES   REMARKS
BRADFORD       MOCLDY    55  55 100 CALM      30.18F                  
ST MARYS       CLOUDY    59  55  88 CALM      30.20S                  
DUBOIS         MOCLDY    63  56  78 NE3       30.15F                  
CLEARFIELD     MOCLDY    59  55  87 N7        30.15F                  
JOHNSTOWN      PTCLDY    64  54  69 E3        30.16F                  
SOMERSET       PTCLDY    61  54  77 CALM      30.17S                  
ALTOONA        CLOUDY    68  56  65 E3        30.15S                  
STATE COLLEGE    N/A     65  55  70 CALM      30.14F                  
REEDSVILLE     PTCLDY    66  57  72 CALM      30.12F                  
WELLSBORO      MOCLDY    55  55 100 CALM      30.17S                  
WILLIAMSPORT   MOCLDY    62  57  83 N3        30.12F                  
SELINSGROVE    MOCLDY    63  59  87 CALM      30.13F                  
FT INDIANTOWN  MOCLDY    66  58  75 CALM      30.11F                  
CAPITAL CITY   MOCLDY    76  59  55 E3        30.12F                  
HARRISBURG     MOCLDY    72  61  68 E3        30.11F                  
YORK           MOCLDY    73  62  68 S5        30.12F                  
$$


SKY/WX - Weather  TMP - Temperature  DP - Dew Point  RH - Humidity
WIND - Wind Direction/Speed PRES - Barometric Pressure VSB - Visibility
WCI - Wind Chill Index E13G22 Wind - East Wind 13 mph/Gusts of 22 mph

Trending Headlines

Trending Entertainment Headlines

Barneytown Radar Loop

Use the map search tool if you want to place a location marker on the radar map...

Barneytown Quick Facts

National Two Day Weather Forecast


E-mail the Barneytown Weather Forecast

Voice your opinion or tell us about page issues...